Saint Bonnet de Bellac- Haute Vienne - France
Donnes mto: lundi, 09/04/2012
Date Horaire Temp. E. Hum. E. P.atmo. Pluie Vent Direction Direction Ensoleilleme Solaire P. de rose Temp au vent Rafales
09/04/2012 00:00 10,1 C 70 % 1015,1 hPa 0,0 mm 0,4 km/h (0 Bft) S-SO 202 0 min 0 W/m 4,9 C 10,1 C 3,6 km/h (1 Bft)
09/04/2012 00:10 10,0 C 70 % 1015,2 hPa 0,0 mm 0,0 km/h (0 Bft) S-SO 202 0 min 0 W/m 4,8 C 10,0 C 1,8 km/h (1 Bft)
09/04/2012 00:20 9,9 C 70 % 1015,3 hPa 0,0 mm 0,7 km/h (0 Bft) SO 225 0 min 0 W/m 4,7 C 9,9 C 3,2 km/h (1 Bft)
09/04/2012 00:30 9,9 C 71 % 1015,1 hPa 0,0 mm 1,1 km/h (1 Bft) SO 225 0 min 0 W/m 4,9 C 9,9 C 1,1 km/h (1 Bft)
09/04/2012 00:40 9,9 C 71 % 1015,1 hPa 0,0 mm 6,1 km/h (2 Bft) SO 225 0 min 0 W/m 4,9 C 9,3 C 7,2 km/h (2 Bft)
09/04/2012 00:50 9,9 C 71 % 1015,0 hPa 0,0 mm 1,8 km/h (1 Bft) SO 225 0 min 0 W/m 4,9 C 9,9 C 4,3 km/h (1 Bft)
09/04/2012 01:00 9,8 C 71 % 1014,9 hPa 0,0 mm 5,0 km/h (1 Bft) SO 225 0 min 0 W/m 4,8 C 9,5 C 6,1 km/h (2 Bft)
09/04/2012 01:10 9,8 C 72 % 1014,7 hPa 0,0 mm 1,1 km/h (1 Bft) SO 225 0 min 0 W/m 5,0 C 9,8 C 2,9 km/h (1 Bft)
09/04/2012 01:20 9,7 C 74 % 1014,7 hPa 0,0 mm 0,0 km/h (0 Bft) SO 225 0 min 0 W/m 5,3 C 9,7 C 0,0 km/h (0 Bft)
09/04/2012 01:30 9,6 C 74 % 1014,7 hPa 0,0 mm 4,0 km/h (1 Bft) SO 225 0 min 0 W/m 5,2 C 9,6 C 8,3 km/h (2 Bft)
09/04/2012 01:40 9,6 C 76 % 1014,6 hPa 0,0 mm 2,2 km/h (1 Bft) SO 225 0 min 0 W/m 5,6 C 9,6 C 6,1 km/h (2 Bft)
09/04/2012 01:50 9,5 C 78 % 1014,5 hPa 0,0 mm 2,9 km/h (1 Bft) SO 225 0 min 0 W/m 5,9 C 9,5 C 3,6 km/h (1 Bft)
09/04/2012 02:00 9,5 C 78 % 1014,5 hPa 0,0 mm 2,2 km/h (1 Bft) S-SO 202 0 min 0 W/m 5,9 C 9,5 C 4,0 km/h (1 Bft)
09/04/2012 02:10 9,4 C 78 % 1014,6 hPa 0,0 mm 1,8 km/h (1 Bft) O 270 0 min 0 W/m 5,8 C 9,4 C 3,6 km/h (1 Bft)
09/04/2012 02:20 9,4 C 78 % 1014,6 hPa 0,0 mm 3,2 km/h (1 Bft) SO 225 0 min 0 W/m 5,8 C 9,4 C 10,1 km/h (2 Bft)
09/04/2012 02:30 9,4 C 80 % 1014,4 hPa 0,0 mm 4,0 km/h (1 Bft) SO 225 0 min 0 W/m 6,1 C 9,4 C 6,8 km/h (2 Bft)
09/04/2012 02:40 9,4 C 81 % 1014,4 hPa 0,0 mm 1,1 km/h (1 Bft) SO 225 0 min 0 W/m 6,3 C 9,4 C 1,1 km/h (1 Bft)
09/04/2012 02:50 9,4 C 82 % 1014,2 hPa 0,0 mm 0,4 km/h (0 Bft) S-SO 202 0 min 0 W/m 6,5 C 9,4 C 3,6 km/h (1 Bft)
09/04/2012 03:02 9,3 C 83 % 1014,1 hPa 0,0 mm 3,2 km/h (1 Bft) S-SO 202 0 min 0 W/m 6,6 C 9,3 C 4,3 km/h (1 Bft)
09/04/2012 03:10 9,3 C 84 % 1014,0 hPa 0,0 mm 2,9 km/h (1 Bft) S-SO 202 0 min 0 W/m 6,7 C 9,3 C 6,5 km/h (2 Bft)
09/04/2012 03:20 9,2 C 84 % 1014,0 hPa 0,0 mm 7,2 km/h (2 Bft) SO 225 0 min 0 W/m 6,6 C 8,2 C 13,0 km/h (3 Bft)
09/04/2012 03:30 9,1 C 85 % 1014,0 hPa 0,0 mm 4,3 km/h (1 Bft) S-SO 202 0 min 0 W/m 6,7 C 9,1 C 7,6 km/h (2 Bft)
09/04/2012 03:40 9,1 C 86 % 1013,9 hPa 0,0 mm 0,4 km/h (0 Bft) SO 225 0 min 0 W/m 6,9 C 9,1 C 1,4 km/h (1 Bft)
09/04/2012 03:50 9,1 C 87 % 1013,8 hPa 0,0 mm 0,7 km/h (0 Bft) SO 225 0 min 0 W/m 7,1 C 9,1 C 0,7 km/h (0 Bft)
09/04/2012 04:00 9,1 C 87 % 1013,7 hPa 0,0 mm 1,4 km/h (1 Bft) SO 225 0 min 0 W/m 7,1 C 9,1 C 3,2 km/h (1 Bft)
09/04/2012 04:10 9,0 C 87 % 1013,6 hPa 0,0 mm 0,4 km/h (0 Bft) SO 225 0 min 0 W/m 7,0 C 9,0 C 3,6 km/h (1 Bft)
09/04/2012 04:20 9,1 C 87 % 1013,4 hPa 0,0 mm 2,2 km/h (1 Bft) S-SO 202 0 min 0 W/m 7,1 C 9,1 C 2,9 km/h (1 Bft)
09/04/2012 04:30 9,0 C 87 % 1013,3 hPa 0,0 mm 1,8 km/h (1 Bft) O-SO 247 0 min 0 W/m 7,0 C 9,0 C 1,8 km/h (1 Bft)
09/04/2012 04:40 9,1 C 87 % 1013,3 hPa 0,0 mm 4,3 km/h (1 Bft) SO 225 0 min 0 W/m 7,1 C 9,1 C 7,9 km/h (2 Bft)
09/04/2012 04:50 8,9 C 87 % 1013,3 hPa 0,0 mm 2,9 km/h (1 Bft) SO 225 0 min 0 W/m 6,9 C 8,9 C 4,3 km/h (1 Bft)
09/04/2012 05:00 8,9 C 87 % 1013,2 hPa 0,0 mm 1,8 km/h (1 Bft) S-SO 202 0 min 0 W/m 6,9 C 8,9 C 4,0 km/h (1 Bft)
09/04/2012 05:10 8,9 C 87 % 1013,2 hPa 0,0 mm 5,0 km/h (1 Bft) S-SO 202 0 min 0 W/m 6,9 C 8,5 C 8,3 km/h (2 Bft)
09/04/2012 05:20 8,8 C 86 % 1013,0 hPa 0,0 mm 4,7 km/h (1 Bft) SO 225 0 min 0 W/m 6,6 C 8,5 C 7,6 km/h (2 Bft)
09/04/2012 05:30 8,8 C 87 % 1012,8 hPa 0,0 mm 6,8 km/h (2 Bft) SO 225 0 min 0 W/m 6,8 C 7,9 C 9,4 km/h (2 Bft)
09/04/2012 05:40 8,8 C 87 % 1012,6 hPa 0,0 mm 4,7 km/h (1 Bft) S-SO 202 0 min 0 W/m 6,8 C 8,5 C 7,9 km/h (2 Bft)
09/04/2012 05:50 8,9 C 87 % 1012,6 hPa 0,0 mm 4,7 km/h (1 Bft) O 270 0 min 0 W/m 6,9 C 8,6 C 9,7 km/h (2 Bft)
09/04/2012 06:00 8,8 C 87 % 1012,5 hPa 0,0 mm 5,0 km/h (1 Bft) SO 225 0 min 0 W/m 6,8 C 8,4 C 7,6 km/h (2 Bft)
09/04/2012 06:10 8,8 C 87 % 1012,5 hPa 0,0 mm 4,0 km/h (1 Bft) S-SO 202 0 min 0 W/m 6,8 C 8,8 C 6,8 km/h (2 Bft)
09/04/2012 06:20 8,8 C 87 % 1012,5 hPa 0,0 mm 3,6 km/h (1 Bft) O-SO 247 0 min 0 W/m 6,8 C 8,8 C 9,4 km/h (2 Bft)
09/04/2012 06:30 8,8 C 87 % 1012,4 hPa 0,0 mm 2,5 km/h (1 Bft) SO 225 0 min 0 W/m 6,8 C 8,8 C 3,6 km/h (1 Bft)
09/04/2012 06:40 8,8 C 87 % 1012,4 hPa 0,0 mm 2,9 km/h (1 Bft) S-SO 202 0 min 0 W/m 6,8 C 8,8 C 6,1 km/h (2 Bft)
09/04/2012 06:50 8,8 C 87 % 1012,3 hPa 0,0 mm 2,2 km/h (1 Bft) S-SO 202 0 min 0 W/m 6,8 C 8,8 C 4,3 km/h (1 Bft)
09/04/2012 07:00 8,8 C 87 % 1012,4 hPa 0,0 mm 4,3 km/h (1 Bft) S-SO 202 0 min 0 W/m 6,8 C 8,8 C 9,4 km/h (2 Bft)
09/04/2012 07:10 8,8 C 88 % 1012,4 hPa 0,0 mm 2,9 km/h (1 Bft) SO 225 0 min 0 W/m 6,9 C 8,8 C 4,3 km/h (1 Bft)
09/04/2012 07:20 8,8 C 88 % 1012,3 hPa 0,0 mm 4,0 km/h (1 Bft) O-SO 247 0 min 0 W/m 6,9 C 8,8 C 7,9 km/h (2 Bft)
09/04/2012 07:30 8,8 C 89 % 1012,3 hPa 0,0 mm 9,7 km/h (2 Bft) SO 225 0 min 0 W/m 7,1 C 7,3 C 9,7 km/h (2 Bft)
09/04/2012 07:40 8,8 C 89 % 1012,3 hPa 0,0 mm 6,8 km/h (2 Bft) SO 225 2 min 0 W/m 7,1 C 7,9 C 6,8 km/h (2 Bft)
09/04/2012 07:50 8,8 C 89 % 1012,3 hPa 0,0 mm 8,3 km/h (2 Bft) S-SO 202 2 min 0 W/m 7,1 C 7,5 C 11,2 km/h (2 Bft)
09/04/2012 08:00 8,8 C 88 % 1012,3 hPa 0,0 mm 3,2 km/h (1 Bft) S-SO 202 2 min 0 W/m 6,9 C 8,8 C 3,2 km/h (1 Bft)
09/04/2012 08:10 8,8 C 87 % 1012,2 hPa 0,0 mm 5,8 km/h (2 Bft) S-SO 202 2 min 0 W/m 6,8 C 8,1 C 9,7 km/h (2 Bft)
09/04/2012 08:20 8,8 C 87 % 1012,2 hPa 0,0 mm 5,4 km/h (2 Bft) O-SO 247 2 min 0 W/m 6,8 C 8,3 C 9,7 km/h (2 Bft)
09/04/2012 08:30 8,9 C 86 % 1012,2 hPa 0,0 mm 6,5 km/h (2 Bft) SO 225 2 min 0 W/m 6,7 C 8,1 C 8,6 km/h (2 Bft)
09/04/2012 08:40 8,9 C 86 % 1012,2 hPa 0,0 mm 6,1 km/h (2 Bft) S-SO 202 2 min 0 W/m 6,7 C 8,2 C 7,6 km/h (2 Bft)
09/04/2012 08:50 9,1 C 86 % 1012,2 hPa 0,0 mm 1,4 km/h (1 Bft) SO 225 2 min 0 W/m 6,9 C 9,1 C 4,0 km/h (1 Bft)
09/04/2012 09:00 9,1 C 85 % 1012,2 hPa 0,0 mm 10,1 km/h (2 Bft) SO 225 2 min 0 W/m 6,7 C 7,5 C 15,8 km/h (3 Bft)
09/04/2012 09:10 9,1 C 85 % 1012,1 hPa 0,0 mm 6,5 km/h (2 Bft) SO 225 2 min 0 W/m 6,7 C 8,3 C 11,2 km/h (2 Bft)
09/04/2012 09:20 9,2 C 85 % 1012,1 hPa 0,0 mm 9,0 km/h (2 Bft) SO 225 2 min 0 W/m 6,8 C 7,9 C 10,4 km/h (2 Bft)
09/04/2012 09:30 9,2 C 85 % 1011,9 hPa 0,0 mm 3,6 km/h (1 Bft) SO 225 2 min 0 W/m 6,8 C 9,2 C 7,9 km/h (2 Bft)
09/04/2012 09:40 9,2 C 84 % 1011,9 hPa 0,0 mm 5,0 km/h (1 Bft) SO 225 2 min 0 W/m 6,6 C 8,8 C 9,4 km/h (2 Bft)
09/04/2012 09:50 9,3 C 84 % 1011,9 hPa 0,0 mm 2,9 km/h (1 Bft) S-SO 202 2 min 0 W/m 6,7 C 9,3 C 6,1 km/h (2 Bft)
09/04/2012 10:00 9,3 C 84 % 1011,8 hPa 0,0 mm 4,0 km/h (1 Bft) S-SO 202 2 min 0 W/m 6,7 C 9,3 C 8,3 km/h (2 Bft)
09/04/2012 10:10 9,4 C 84 % 1011,9 hPa 0,0 mm 4,0 km/h (1 Bft) S-SO 202 2 min 0 W/m 6,8 C 9,4 C 7,9 km/h (2 Bft)
09/04/2012 10:20 9,4 C 84 % 1011,9 hPa 0,0 mm 6,8 km/h (2 Bft) S-SO 202 2 min 0 W/m 6,8 C 8,6 C 8,3 km/h (2 Bft)
09/04/2012 10:30 9,6 C 84 % 1011,7 hPa 0,0 mm 4,3 km/h (1 Bft) SO 225 2 min 0 W/m 7,0 C 9,6 C 6,5 km/h (2 Bft)
09/04/2012 10:40 10,1 C 83 % 1011,7 hPa 0,0 mm 7,9 km/h (2 Bft) SO 225 2 min 0 W/m 7,3 C 10,1 C 11,5 km/h (2 Bft)
09/04/2012 10:50 10,3 C 80 % 1011,7 hPa 0,0 mm 4,7 km/h (1 Bft) O 270 2 min 0 W/m 7,0 C 10,3 C 9,7 km/h (2 Bft)
09/04/2012 11:00 10,5 C 79 % 1011,7 hPa 0,0 mm 9,7 km/h (2 Bft) SO 225 2 min 0 W/m 7,0 C 10,5 C 14,4 km/h (3 Bft)
09/04/2012 11:10 10,6 C 78 % 1011,5 hPa 0,0 mm 10,4 km/h (2 Bft) S-SO 202 2 min 0 W/m 6,9 C 10,6 C 13,3 km/h (3 Bft)
09/04/2012 11:20 10,9 C 77 % 1011,5 hPa 0,0 mm 8,6 km/h (2 Bft) O 270 2 min 0 W/m 7,0 C 10,9 C 14,8 km/h (3 Bft)
09/04/2012 11:30 10,9 C 77 % 1011,5 hPa 0,0 mm 5,8 km/h (2 Bft) SO 225 2 min 0 W/m 7,0 C 10,9 C 10,1 km/h (2 Bft)
09/04/2012 11:40 11,2 C 76 % 1011,4 hPa 0,0 mm 4,3 km/h (1 Bft) S-SO 202 2 min 0 W/m 7,1 C 11,2 C 7,6 km/h (2 Bft)
09/04/2012 11:50 11,6 C 75 % 1011,3 hPa 0,0 mm 6,5 km/h (2 Bft) O 270 2 min 0 W/m 7,3 C 11,6 C 10,1 km/h (2 Bft)
09/04/2012 12:00 12,1 C 73 % 1011,1 hPa 0,0 mm 2,2 km/h (1 Bft) O-SO 247 2 min 0 W/m 7,4 C 12,1 C 2,2 km/h (1 Bft)
09/04/2012 12:10 12,0 C 71 % 1011,0 hPa 0,0 mm 4,0 km/h (1 Bft) SO 225 2 min 0 W/m 6,9 C 12,0 C 9,0 km/h (2 Bft)
09/04/2012 12:20 11,8 C 73 % 1011,0 hPa 0,0 mm 5,0 km/h (1 Bft) O-NO 292 2 min 0 W/m 7,1 C 11,8 C 9,4 km/h (2 Bft)
09/04/2012 12:30 11,6 C 74 % 1010,8 hPa 0,0 mm 3,2 km/h (1 Bft) S-SO 202 2 min 0 W/m 7,1 C 11,6 C 7,2 km/h (2 Bft)
09/04/2012 12:40 11,8 C 74 % 1010,6 hPa 0,0 mm 2,2 km/h (1 Bft) SO 225 2 min 0 W/m 7,3 C 11,8 C 3,6 km/h (1 Bft)
09/04/2012 12:50 11,7 C 73 % 1010,4 hPa 0,0 mm 6,1 km/h (2 Bft) S-SO 202 2 min 0 W/m 7,0 C 11,7 C 13,0 km/h (3 Bft)
09/04/2012 13:00 12,0 C 73 % 1010,3 hPa 0,0 mm 6,1 km/h (2 Bft) SO 225 2 min 0 W/m 7,3 C 12,0 C 11,5 km/h (2 Bft)
09/04/2012 13:10 12,4 C 71 % 1010,2 hPa 0,0 mm 9,0 km/h (2 Bft) O-SO 247 2 min 0 W/m 7,3 C 12,4 C 9,0 km/h (2 Bft)
09/04/2012 13:20 12,6 C 68 % 1010,0 hPa 0,0 mm 6,5 km/h (2 Bft) S-SO 202 2 min 0 W/m 6,9 C 12,6 C 7,6 km/h (2 Bft)
09/04/2012 13:30 12,3 C 70 % 1009,9 hPa 0,0 mm 4,3 km/h (1 Bft) O 270 2 min 0 W/m 7,0 C 12,3 C 6,8 km/h (2 Bft)
09/04/2012 13:40 12,6 C 70 % 1009,8 hPa 0,0 mm 4,3 km/h (1 Bft) S-SO 202 2 min 0 W/m 7,3 C 12,6 C 4,3 km/h (1 Bft)
09/04/2012 13:50 12,6 C 66 % 1009,6 hPa 0,0 mm 9,0 km/h (2 Bft) S-SO 202 2 min 0 W/m 6,4 C 12,6 C 12,6 km/h (3 Bft)
09/04/2012 14:00 12,8 C 67 % 1009,4 hPa 0,0 mm 9,4 km/h (2 Bft) O-SO 247 2 min 0 W/m 6,8 C 12,8 C 21,2 km/h (4 Bft)
09/04/2012 14:10 12,7 C 67 % 1009,4 hPa 0,0 mm 5,4 km/h (2 Bft) O-SO 247 2 min 0 W/m 6,7 C 12,7 C 8,6 km/h (2 Bft)
09/04/2012 14:20 12,8 C 66 % 1009,3 hPa 0,0 mm 11,2 km/h (2 Bft) O-SO 247 2 min 0 W/m 6,6 C 12,8 C 17,3 km/h (3 Bft)
09/04/2012 14:30 12,4 C 66 % 1009,1 hPa 0,0 mm 11,5 km/h (2 Bft) S-SO 202 2 min 0 W/m 6,2 C 12,4 C 16,6 km/h (3 Bft)
09/04/2012 14:40 12,3 C 68 % 1009,0 hPa 0,0 mm 9,0 km/h (2 Bft) O 270 2 min 0 W/m 6,6 C 12,3 C 14,4 km/h (3 Bft)
09/04/2012 14:50 12,6 C 67 % 1008,9 hPa 0,0 mm 13,3 km/h (3 Bft) SO 225 2 min 0 W/m 6,6 C 12,6 C 17,6 km/h (3 Bft)
09/04/2012 15:00 12,8 C 65 % 1008,6 hPa 0,0 mm 9,4 km/h (2 Bft) O-SO 247 2 min 0 W/m 6,4 C 12,8 C 17,3 km/h (3 Bft)
09/04/2012 15:10 12,6 C 65 % 1008,5 hPa 0,0 mm 13,3 km/h (3 Bft) SO 225 2 min 0 W/m 6,2 C 12,6 C 17,3 km/h (3 Bft)
09/04/2012 15:20 12,4 C 68 % 1008,4 hPa 0,0 mm 4,0 km/h (1 Bft) SO 225 2 min 0 W/m 6,7 C 12,4 C 9,4 km/h (2 Bft)
09/04/2012 15:30 12,4 C 68 % 1008,2 hPa 0,0 mm 5,0 km/h (1 Bft) SO 225 2 min 0 W/m 6,7 C 12,4 C 5,0 km/h (1 Bft)
09/04/2012 15:40 12,3 C 69 % 1008,1 hPa 0,0 mm 7,9 km/h (2 Bft) S-SO 202 2 min 0 W/m 6,8 C 12,3 C 7,9 km/h (2 Bft)
09/04/2012 15:50 12,2 C 69 % 1008,0 hPa 0,0 mm 7,6 km/h (2 Bft) O-SO 247 2 min 0 W/m 6,7 C 12,2 C 12,6 km/h (3 Bft)
09/04/2012 16:00 12,3 C 69 % 1007,8 hPa 0,0 mm 9,0 km/h (2 Bft) SO 225 2 min 0 W/m 6,8 C 12,3 C 14,4 km/h (3 Bft)
09/04/2012 16:10 12,5 C 68 % 1007,6 hPa 0,0 mm 9,4 km/h (2 Bft) S-SO 202 2 min 0 W/m 6,8 C 12,5 C 9,4 km/h (2 Bft)
09/04/2012 16:20 12,8 C 67 % 1007,4 hPa 0,0 mm 14,8 km/h (3 Bft) O-SO 247 2 min 0 W/m 6,8 C 12,8 C 23,8 km/h (4 Bft)
09/04/2012 16:30 12,8 C 66 % 1007,4 hPa 0,0 mm 10,8 km/h (2 Bft) S-SO 202 2 min 0 W/m 6,6 C 12,8 C 10,8 km/h (2 Bft)
09/04/2012 16:40 12,8 C 65 % 1007,3 hPa 0,0 mm 13,0 km/h (3 Bft) S-SO 202 2 min 0 W/m 6,4 C 12,8 C 22,0 km/h (4 Bft)
09/04/2012 16:50 12,8 C 66 % 1007,1 hPa 0,0 mm 11,5 km/h (2 Bft) SO 225 2 min 0 W/m 6,6 C 12,8 C 16,9 km/h (3 Bft)
09/04/2012 17:00 12,9 C 66 % 1007,0 hPa 0,0 mm 9,4 km/h (2 Bft) SO 225 2 min 0 W/m 6,7 C 12,9 C 13,0 km/h (3 Bft)
09/04/2012 17:10 12,9 C 65 % 1006,9 hPa 0,0 mm 15,1 km/h (3 Bft) S-SO 202 2 min 0 W/m 6,5 C 12,9 C 21,6 km/h (4 Bft)
09/04/2012 17:20 13,1 C 65 % 1006,7 hPa 0,0 mm 11,5 km/h (2 Bft) S-SO 202 2 min 0 W/m 6,7 C 13,1 C 14,8 km/h (3 Bft)
09/04/2012 17:30 13,2 C 64 % 1006,6 hPa 0,0 mm 10,4 km/h (2 Bft) SO 225 2 min 0 W/m 6,5 C 13,2 C 11,2 km/h (2 Bft)
09/04/2012 17:40 13,1 C 65 % 1006,4 hPa 0,0 mm 8,6 km/h (2 Bft) SO 225 2 min 0 W/m 6,7 C 13,1 C 8,6 km/h (2 Bft)
09/04/2012 17:50 13,1 C 64 % 1006,2 hPa 0,0 mm 11,9 km/h (2 Bft) S-SO 202 2 min 0 W/m 6,4 C 13,1 C 15,5 km/h (3 Bft)
09/04/2012 18:00 13,1 C 64 % 1006,2 hPa 0,0 mm 10,4 km/h (2 Bft) SO 225 2 min 0 W/m 6,4 C 13,1 C 14,0 km/h (3 Bft)
09/04/2012 18:10 13,2 C 64 % 1006,0 hPa 0,0 mm 10,1 km/h (2 Bft) S 180 2 min 0 W/m 6,5 C 13,2 C 19,4 km/h (3 Bft)
09/04/2012 18:20 13,1 C 64 % 1005,9 hPa 0,0 mm 11,9 km/h (2 Bft) SO 225 2 min 0 W/m 6,4 C 13,1 C 16,6 km/h (3 Bft)
09/04/2012 18:30 13,1 C 64 % 1005,8 hPa 0,0 mm 13,0 km/h (3 Bft) S-SO 202 2 min 0 W/m 6,4 C 13,1 C 16,9 km/h (3 Bft)
09/04/2012 18:40 13,1 C 64 % 1005,7 hPa 0,0 mm 10,1 km/h (2 Bft) S-SO 202 2 min 0 W/m 6,4 C 13,1 C 15,8 km/h (3 Bft)
09/04/2012 18:50 12,9 C 64 % 1005,6 hPa 0,0 mm 9,0 km/h (2 Bft) SO 225 2 min 0 W/m 6,3 C 12,9 C 11,5 km/h (2 Bft)
09/04/2012 19:00 12,9 C 64 % 1005,5 hPa 0,0 mm 10,8 km/h (2 Bft) S-SE 157 2 min 0 W/m 6,3 C 12,9 C 20,9 km/h (4 Bft)
09/04/2012 19:10 12,8 C 65 % 1005,3 hPa 0,0 mm 9,4 km/h (2 Bft) O-SO 247 2 min 0 W/m 6,4 C 12,8 C 9,4 km/h (2 Bft)
09/04/2012 19:20 12,6 C 65 % 1005,0 hPa 0,0 mm 7,2 km/h (2 Bft) SO 225 2 min 0 W/m 6,2 C 12,6 C 9,0 km/h (2 Bft)
09/04/2012 19:30 12,6 C 65 % 1004,8 hPa 0,0 mm 7,9 km/h (2 Bft) S-SO 202 2 min 0 W/m 6,2 C 12,6 C 8,3 km/h (2 Bft)
09/04/2012 19:40 12,5 C 65 % 1004,6 hPa 0,0 mm 9,0 km/h (2 Bft) S-SO 202 2 min 0 W/m 6,1 C 12,5 C 13,0 km/h (3 Bft)
09/04/2012 19:50 12,4 C 65 % 1004,5 hPa 0,0 mm 6,5 km/h (2 Bft) S-SO 202 2 min 0 W/m 6,0 C 12,4 C 8,3 km/h (2 Bft)
09/04/2012 20:00 12,3 C 66 % 1004,5 hPa 0,0 mm 6,5 km/h (2 Bft) S-SO 202 2 min 0 W/m 6,1 C 12,3 C 7,6 km/h (2 Bft)
09/04/2012 20:10 12,1 C 66 % 1004,3 hPa 0,0 mm 8,6 km/h (2 Bft) SO 225 2 min 0 W/m 5,9 C 12,1 C 11,5 km/h (2 Bft)
09/04/2012 20:20 11,9 C 67 % 1004,2 hPa 0,0 mm 8,3 km/h (2 Bft) S-SO 202 2 min 0 W/m 6,0 C 11,9 C 16,6 km/h (3 Bft)
09/04/2012 20:30 11,8 C 68 % 1004,0 hPa 0,0 mm 4,0 km/h (1 Bft) S-SE 157 0 min 0 W/m 6,1 C 11,8 C 7,2 km/h (2 Bft)
09/04/2012 20:40 11,5 C 69 % 1003,9 hPa 0,0 mm 6,8 km/h (2 Bft) S-SE 157 0 min 0 W/m 6,0 C 11,5 C 9,7 km/h (2 Bft)
09/04/2012 20:50 11,3 C 69 % 1003,8 hPa 0,0 mm 4,3 km/h (1 Bft) S-SO 202 0 min 0 W/m 5,8 C 11,3 C 8,3 km/h (2 Bft)
09/04/2012 21:00 11,1 C 69 % 1003,6 hPa 0,0 mm 7,2 km/h (2 Bft) S-SO 202 0 min 0 W/m 5,6 C 11,1 C 12,6 km/h (3 Bft)
09/04/2012 21:10 10,9 C 70 % 1003,5 hPa 0,0 mm 5,4 km/h (2 Bft) S-SO 202 0 min 0 W/m 5,6 C 10,9 C 10,4 km/h (2 Bft)
09/04/2012 21:20 10,8 C 71 % 1003,4 hPa 0,0 mm 6,5 km/h (2 Bft) S-SO 202 0 min 0 W/m 5,8 C 10,8 C 10,4 km/h (2 Bft)
09/04/2012 21:30 10,6 C 72 % 1003,4 hPa 0,0 mm 5,8 km/h (2 Bft) S-SO 202 0 min 0 W/m 5,8 C 10,6 C 7,9 km/h (2 Bft)
09/04/2012 21:40 10,5 C 72 % 1003,3 hPa 0,0 mm 6,8 km/h (2 Bft) SO 225 0 min 0 W/m 5,7 C 10,5 C 14,0 km/h (3 Bft)
09/04/2012 21:50 10,4 C 73 % 1003,2 hPa 0,0 mm 9,0 km/h (2 Bft) S-SO 202 0 min 0 W/m 5,8 C 10,4 C 9,0 km/h (2 Bft)
09/04/2012 22:00 10,3 C 73 % 1003,1 hPa 0,0 mm 6,8 km/h (2 Bft) S-SO 202 0 min 0 W/m 5,7 C 10,3 C 10,8 km/h (2 Bft)
09/04/2012 22:10 10,2 C 73 % 1002,9 hPa 0,0 mm 5,4 km/h (2 Bft) S 180 0 min 0 W/m 5,6 C 10,2 C 7,9 km/h (2 Bft)
09/04/2012 22:20 10,1 C 74 % 1002,9 hPa 0,0 mm 7,9 km/h (2 Bft) S-SO 202 0 min 0 W/m 5,7 C 10,1 C 12,2 km/h (2 Bft)
09/04/2012 22:30 10,0 C 74 % 1002,9 hPa 0,0 mm 8,6 km/h (2 Bft) S-SO 202 0 min 0 W/m 5,6 C 8,9 C 12,6 km/h (3 Bft)
09/04/2012 22:40 9,9 C 75 % 1002,7 hPa 0,0 mm 8,3 km/h (2 Bft) S-SO 202 0 min 0 W/m 5,7 C 8,8 C 8,3 km/h (2 Bft)
09/04/2012 22:50 9,9 C 75 % 1002,6 hPa 0,0 mm 9,7 km/h (2 Bft) S-SO 202 0 min 0 W/m 5,7 C 8,6 C 13,7 km/h (3 Bft)
09/04/2012 23:00 9,8 C 75 % 1002,5 hPa 0,0 mm 10,4 km/h (2 Bft) S-SE 157 0 min 0 W/m 5,6 C 8,3 C 14,8 km/h (3 Bft)
09/04/2012 23:10 9,8 C 76 % 1002,4 hPa 0,0 mm 7,9 km/h (2 Bft) S-SO 202 0 min 0 W/m 5,8 C 8,8 C 18,0 km/h (3 Bft)
09/04/2012 23:20 9,8 C 75 % 1002,4 hPa 0,0 mm 6,5 km/h (2 Bft) S-SO 202 0 min 0 W/m 5,6 C 9,1 C 12,2 km/h (2 Bft)
09/04/2012 23:30 9,8 C 76 % 1002,4 hPa 0,0 mm 8,6 km/h (2 Bft) SO 225 0 min 0 W/m 5,8 C 8,7 C 13,3 km/h (3 Bft)
09/04/2012 23:40 9,8 C 76 % 1002,3 hPa 0,0 mm 4,0 km/h (1 Bft) S-SO 202 0 min 0 W/m 5,8 C 9,8 C 8,6 km/h (2 Bft)
09/04/2012 23:50 9,8 C 76 % 1002,3 hPa 0,0 mm 5,0 km/h (1 Bft) S-SO 202 0 min 0 W/m 5,8 C 9,5 C 10,8 km/h (2 Bft)
_ Min-Heure 08:20 19:00 23:50 - 01:20 - - - - 00:20 07:30 01:20
Minimum _ 8,8 C 64 % 1002,3 hPa - 0,0 km/h (0 Bft) - - - - 4,7 C 7,3 C 0,0 km/h (0 Bft)
_ Max-Heure 18:10 07:50 00:20 23:50 17:10 - - 20:20 23:50 12:00 18:10 16:20
Maximum _ 13,2 C 89 % 1015,3 hPa 0,0 mm 15,1 km/h
S-SO (3 Bft)
- - 2 min 0 W/m 7,4 C 13,2 C 23,8 km/h
O-SO (4 Bft)
Moyenne _ 10,7 C 76 % 1009,7 hPa #0,0 mm 6,2 km/h (2 Bft) S-SO - #2:34 h 0 W/m 6,4 C 10,5 C 9,5 km/h (2 Bft)
Saint Bonnet de Bellac- Haute Vienne - France